Hourly Data Report for May 30, 2012

All times are specified in Local Standard Time (LST). Add 1 hour to adjust for Daylight Saving Time where and when it is observed.

PENTICTON A
BRITISH COLUMBIA

49°27'45.000" N
119°36'08.000" W
344.40 m
1126146
71889
YYF

Related Data

No related data is available for this station

Download Data

Hourly Data (May 2012)
Hourly Data Report for May 30, 2012
Temp Definition
°C
Dew Point Temp Definition
°C
Rel Hum Definition
%
Wind Dir Definition
10's deg

Wind Spd Definition
km/h
Visibility Definition
km
Stn Press Definition
kPa
Hmdx Definition


Wind Chill Definition


Weather Definition


TIME
00:00 10.2 2.3 58 3 6 10.0 97.75     LegendNANA
01:00 9.2 1.4 58 34 6 10.0 97.76     Mostly Cloudy
02:00 8.2 0.7 59 31 4 10.0 97.78     LegendNANA
03:00 8.7 1.4 60 32 4 10.0 97.82     LegendNANA
04:00 8.4 2.0 64   0 10.0 97.85     Mostly Cloudy
05:00 11.6 0.7 47 28 7 10.0 97.89     LegendNANA
06:00 11.4 2.7 55 34 6 10.0 97.93     LegendNANA
07:00 13.8 2.8 47 1 6 10.0 97.95     Mostly Cloudy
08:00 15.5 1.3 38 2 10 10.0 97.97     LegendNANA
09:00 16.2 1.2 36   0 10.0 97.95     LegendNANA
10:00 17.8 1.9 34 10 5 10.0 97.92     Mostly Cloudy
11:00 19.6 2.6 32 16 9 10.0 97.87     LegendNANA
12:00 20.4 2.9 31 19 8 10.0 97.83     LegendNANA
13:00 22.0 3.8 30 17 5 10.0 97.78     Mostly Cloudy
14:00 21.6 4.4 32 18 10 10.0 97.72     LegendNANA
15:00 22.8 5.4 32 16 17 10.0 97.65     LegendNANA
16:00 23.2 5.8 32 17 17 10.0 97.62     Mostly Cloudy
17:00 20.8 6.9 40 20 13 10.0 97.60     LegendNANA
18:00 20.5 6.6 40 18 10 10.0 97.62     LegendNANA
19:00 19.4 7.9 47 9 4 10.0 97.65     Mostly Cloudy
20:00 18.7 5.3 41 30 8 10.0 97.66     LegendNANA
21:00 17.9 5.3 43 4 5 10.0 97.68     LegendNANA
22:00 18.0 5.7 44 5 12 10.0 97.65     Rain Showers
23:00 17.2 5.3 45 32 9 10.0 97.64     LegendNANA

Notes on Data Quality.

Legend

  • E = Estimated
  • M = Missing
  • NA = Not Available
Date modified: